Find Starlink 34362

NORAD ID: 64292 Int'l Des: 2025-123 Owner: SPXS Country: US Constellation: starlink operational
LEOCIRCULAR

リアルタイム位置

3D地球を読み込み中...

Starlink 34362について

説明を読み込み中...

次回通過

Passes for default location (London). Set your location on the main map for personalized predictions.

高度履歴

Loading altitude history...

軌道要素

1 64292U 25123B 26107.12484054 .00004148 00000-0 35516-3 0 9990
2 64292 69.9996 97.6349 0003716 266.5890 93.4845 14.98332303 48599
Epoch: Apr 17, 2026 • Age: 15 hours

現在のステータス

高度 584.5 km
速度 7.57 km/s
衛星直下点 61.85°N, 26.91°E
打ち上げ日 Jun 8, 2025
運用期間 0.8 years
タイプ internet

技術仕様

分類 Payload
質量 575.00 kg
乾燥質量 530.00 kg
総質量 575.00 kg
長さ 0.30 m
直径 4.10 m
スパン 29.00 m
形状 Box + pan
製造者 SPXS
バスタイプ Starlink V2MO
フェーズステータス In Orbit
所有者/国 SPXS/US

Most Searched